Flag for China Weather past 2 weeks in Suzhou, Jiangsu, China

Now
84 °F

Passing clouds.


Feels Like: 96 °F
Forecast: 81 / 88 °F
Wind: 13 mph from Southeast

Location: Shanghai Hongqiao Airport

Current Time: Jul 24, 2014 at 6:36:09 AM

Latest Report: Jul 24, 2014 at 6:00 AM


Visibility: N/A

Pressure: 29.56 "Hg

Humidity: 84%

Dew point: 79 °F

Location of SuzhouLocation

Historic Weather in Suzhou — Graph

°F

Suzhou temperature yesterday

Maximum temperature yesterday: 95 °F (at 2:00 PM)
Minimum temperature yesterday: 82 °F (at 12:00 AM)
Average temperature yesterday: 89 °F

Past Weeks' High & Low Weather Summary

 TemperatureHumidityPressure
High97 °F (Jul 12, 12:30 PM)100% (Jul 12, 8:30 PM)29.86 "Hg (Jul 12, 8:30 PM)
Low72 °F (Jul 15, 8:30 AM)47% (Jul 10, 3:30 PM)29.47 "Hg (Jul 9, 5:00 AM)
Average84 °F77%29.71 "Hg
* Reported Jul 9 5:00 AM — Jul 24 5:30 AM, Suzhou, Weather by CustomWeather, © 2014

Note: Actual official high and low records may vary slightly from our data, if they occured in-between our weather recording intervals... More about our weather records

Advertising

Suzhou weather history for previous 24 hours

 ConditionsComfort  
Time TempWeatherWind HumidityBarometerVisibility
5:30 AM
Jul 24
84 °FPassing clouds.13 mph84%29.56 "HgN/A
5:00 AM84 °FClear.10 mph79%29.56 "Hg10 mi
4:30 AM84 °FPassing clouds.10 mph79%29.56 "HgN/A
4:00 AM84 °FPassing clouds.13 mph84%29.53 "HgN/A
3:30 AM84 °FPassing clouds.10 mph84%29.53 "HgN/A
3:00 AM84 °FPassing clouds.13 mph84%29.56 "HgN/A
2:30 AM84 °FPassing clouds.13 mph84%29.56 "HgN/A
2:00 AM84 °FPassing clouds.10 mph84%29.56 "HgN/A
1:30 AM84 °FPassing clouds.10 mph84%29.56 "HgN/A
1:00 AM84 °FPassing clouds.10 mph84%29.59 "HgN/A
12:30 AM84 °FPassing clouds.13 mph84%29.59 "HgN/A
12:00 AM86 °FPassing clouds.13 mph79%29.59 "HgN/A
11:30 PM
Jul 23
86 °FPassing clouds.13 mph79%29.59 "HgN/A
11:00 PM86 °FPassing clouds.13 mph79%29.59 "HgN/A
10:30 PM86 °FPassing clouds.13 mph79%29.62 "HgN/A
10:00 PM86 °FPassing clouds.13 mph79%29.62 "HgN/A
9:30 PM86 °FPassing clouds.10 mph79%29.62 "HgN/A
9:00 PM86 °FPassing clouds.13 mph79%29.62 "HgN/A
5:30 PM91 °FScattered clouds.10 mph67%29.59 "HgN/A
5:00 PM91 °FScattered clouds.15 mph63%29.56 "HgN/A
4:00 PM93 °FScattered clouds.15 mph63%29.59 "HgN/A
2:00 PM95 °FPartly sunny.15 mph56%29.59 "HgN/A
1:30 PM93 °FPartly sunny.15 mph59%29.59 "HgN/A
1:00 PM93 °FPartly sunny.13 mph59%29.62 "HgN/A
12:30 PM93 °FPartly sunny.15 mph59%29.62 "HgN/A
12:00 PM93 °FPartly sunny.15 mph59%29.62 "HgN/A
11:30 AM93 °FPartly sunny.15 mph59%29.62 "HgN/A
11:00 AM93 °FPartly sunny.13 mph59%29.65 "HgN/A
10:30 AM91 °FPartly sunny.13 mph63%29.65 "HgN/A
10:00 AM90 °FPartly sunny.15 mph67%29.65 "HgN/A
9:30 AM91 °FPartly sunny.15 mph63%29.65 "HgN/A
9:00 AM90 °FScattered clouds.10 mph71%29.65 "HgN/A
8:30 AM90 °FScattered clouds.10 mph71%29.65 "HgN/A
8:00 AM86 °FScattered clouds.13 mph79%29.65 "HgN/A
7:00 AM86 °FScattered clouds.10 mph79%29.68 "HgN/A
Weather by CustomWeather, © 2014

See weather overviewHow to use our weather pages